EW0784 Weather Reports


time (UTC)temp
C
wind
direction
speed
KPH
gust
KPH
rain 1hr
cm
rain 24hr
cm
rain mn
cm
humidity
%
barometer
mb
20260906173020 26 110 3.2 16.1 0.00 0.00 0.00 69 1018.6
20260906171516 25 56 0.0 17.7 0.00 0.00 0.00 72 1018.7
20260906170014 25 97 0.0 9.7 0.00 0.00 0.00 74 1019.1
20260906164511 24 90 0.0 14.5 0.00 0.00 0.00 74 1019.0
20260906163009 23 146 0.0 12.9 0.00 0.00 0.00 76 1019.3
20260906161507 23 103 0.0 12.9 0.00 0.00 0.00 78 1019.4
20260906160004 23 143 0.0 22.5 0.00 0.00 0.00 79 1019.5
20260906154503 23 226 0.0 14.5 0.00 0.00 0.00 81 1019.3
20260906153059 22 115 0.0 16.1 0.00 0.00 0.00 83 1019.4
20260906151556 22 151 0.0 14.5 0.00 0.00 0.00 85 1019.7
20260906150052 21 141 0.0 20.9 0.00 0.00 0.00 86 1019.4
20260906144606 21 122 0.0 12.9 0.00 0.00 0.00 88 1019.5
20260906143050 21 72 1.6 12.9 0.00 0.00 0.00 90 1019.4
20260906141550 20 122 1.6 9.7 0.00 0.00 0.00 93 1019.5
20260906140045 20 145 4.8 12.9 0.00 0.00 0.00 94 1019.5
20260906134545 19 117 3.2 11.3 0.00 0.00 0.00 94 1019.2
20260906133049 20 103 0.0 12.9 0.00 0.00 0.00 95 1019.2
20260906131541 19 107 3.2 16.1 0.00 0.00 0.00 94 1019.0
20260906130044 19 91 0.0 1.6 0.00 0.00 0.00 95 1019.0
20260906124542 19 96 0.0 0.0 0.00 0.00 0.00 95 1019.0
20260906123039 19 89 0.0 0.0 0.00 0.00 0.00 96 1019.0
20260906121538 18 128 0.0 0.0 0.00 0.00 0.00 96 1018.8
20260906120041 18 113 0.0 0.0 0.00 0.00 0.00 96 1018.6
20260906114545 18 113 0.0 0.0 0.00 0.00 0.00 96 1018.6
20260906113133 18 127 0.0 0.0 0.00 0.00 0.00 96 1018.5
20260906111535 18 122 0.0 0.0 0.00 0.00 0.00 95 1018.4
20260906110028 18 122 0.0 0.0 0.00 0.00 0.00 95 1018.4
20260906104532 19 122 0.0 0.0 0.00 0.00 0.00 94 1018.1
20260906103024 19 122 0.0 0.0 0.00 0.00 0.00 94 1018.2
20260906101522 20 89 0.0 0.0 0.00 0.00 0.00 94 1018.1
20260906100020 20 99 0.0 0.0 0.00 0.00 0.00 94 1017.8
20260906094543 20 82 0.0 0.0 0.00 0.00 0.00 93 1017.4
20260906093038 20 91 0.0 0.0 0.00 0.00 0.00 93 1017.4
20260906091518 20 103 0.0 0.0 0.00 0.00 0.00 93 1017.3
20260906090024 20 122 0.0 0.0 0.00 0.00 0.00 93 1017.4
20260906084520 20 112 0.0 0.0 0.00 0.00 0.00 93 1017.2
20260906083021 20 90 0.0 0.0 0.00 0.00 0.00 93 1017.3
20260906081516 20 103 0.0 0.0 0.00 0.00 0.00 93 1017.3
20260906080016 20 93 0.0 0.0 0.00 0.00 0.00 94 1017.3
20260906074517 20 94 0.0 0.0 0.00 0.00 0.00 93 1017.4
20260906073019 20 93 0.0 0.0 0.00 0.00 0.00 93 1017.5
20260906071510 20 87 0.0 0.0 0.00 0.00 0.00 92 1017.5
20260906070007 20 96 0.0 0.0 0.00 0.00 0.00 91 1017.7
20260906064507 20 95 0.0 0.0 0.00 0.00 0.00 91 1017.8
20260906063006 20 90 0.0 0.0 0.00 0.00 0.00 91 1017.7
20260906061505 20 104 0.0 0.0 0.00 0.00 0.00 91 1017.9
20260906060004 20 109 0.0 0.0 0.00 0.00 0.00 91 1017.9
20260906054504 20 109 0.0 0.0 0.00 0.00 0.00 90 1017.8
20260906053001 21 108 0.0 0.0 0.00 0.00 0.00 89 1017.8
20260906051607 21 109 0.0 0.0 0.00 0.00 0.00 89 1017.8
20260906050105 21 132 0.0 0.0 0.00 0.00 0.00 90 1017.8
20260906044602 20 129 0.0 0.0 0.00 0.00 0.00 90 1017.8
20260906043058 20 127 0.0 0.0 0.00 0.00 0.00 89 1017.9
20260906041556 20 127 0.0 0.0 0.00 0.00 0.00 90 1017.9
20260906034557 20 104 0.0 0.0 0.00 0.00 0.00 89 1017.9
20260906033055 21 103 0.0 0.0 0.00 0.00 0.00 87 1018.1
20260906031555 21 103 0.0 0.0 0.00 0.00 0.00 87 1018.1
20260906030052 21 103 0.0 0.0 0.00 0.00 0.00 86 1018.3
20260906024558 21 103 0.0 0.0 0.00 0.00 0.00 86 1018.2
20260906023052 21 103 0.0 0.0 0.00 0.00 0.00 84 1017.8
20260906021551 22 102 0.0 0.0 0.00 0.00 0.00 82 1017.6
20260906020050 22 101 0.0 0.0 0.00 0.00 0.00 80 1017.0
20260906014627 23 101 0.0 0.0 0.00 0.00 0.00 77 1016.6
20260906013057 23 126 0.0 0.0 0.00 0.00 0.00 77 1016.3
20260906011549 23 219 0.0 0.0 0.00 0.00 0.00 74 1016.1
20260906010052 24 219 0.0 0.0 0.00 0.00 0.00 72 1015.5
20260906004551 25 91 0.0 0.0 0.00 0.00 0.00 70 1015.3
20260906003047 25 77 0.0 0.0 0.00 0.00 0.00 69 1015.3
20260906001546 26 95 0.0 0.0 0.00 0.00 0.00 67 1015.4
20260906000046 27 99 0.0 6.4 0.00 0.00 0.00 65 1015.3
20260905234545 27 94 0.0 1.6 0.00 0.00 0.00 64 1015.2
20260905233047 27 97 1.6 24.1 0.00 0.00 0.00 64 1014.9
20260905231545 27 78 0.0 19.3 0.00 0.00 0.00 64 1014.9
20260905230043 28 76 0.0 14.5 0.00 0.00 0.00 63 1014.8
20260905224543 28 117 0.0 20.9 0.00 0.00 0.00 62 1014.8
20260905223042 28 101 0.0 17.7 0.00 0.00 0.00 61 1015.1
20260905221604 28 88 0.0 11.3 0.00 0.00 0.00 61 1015.3
20260905220041 28 89 0.0 14.5 0.00 0.00 0.00 61 1015.1
20260905214540 28 85 0.0 24.1 0.00 0.00 0.00 64 1015.0
20260905213055 28 78 0.0 16.1 0.00 0.00 0.00 64 1015.1
20260905211543 28 81 0.0 11.3 0.00 0.00 0.00 64 1015.7
20260905210049 28 23 0.0 4.8 0.00 0.00 0.00 63 1016.0
20260905204544 28 84 0.0 8.0 0.00 0.00 0.00 63 1016.1
20260905203041 28 114 0.0 0.0 0.00 0.00 0.00 64 1016.5
20260905201539 28 88 0.0 0.0 0.00 0.00 0.00 62 1016.6
20260905200038 28 80 0.0 0.0 0.00 0.00 0.00 65 1016.9
20260905194533 27 137 0.0 0.0 0.00 0.00 0.00 65 1017.0
20260905193032 28 95 0.0 0.0 0.00 0.00 0.00 66 1017.1
20260905191529 27 259 0.0 0.0 0.00 0.00 0.00 67 1017.2
20260905190028 27 79 0.0 0.0 0.00 0.00 0.00 66 1017.1
20260905184535 27 240 0.0 1.6 0.00 0.00 0.00 72 1017.2
20260905183022 26 93 0.0 0.0 0.00 0.00 0.00 73 1017.4
20260905181518 25 91 0.0 0.0 0.00 0.00 0.00 78 1017.4
20260905180016 24 95 0.0 11.3 0.00 0.00 0.00 83 1017.6
20260905174509 22 91 0.0 8.0 0.00 0.00 0.00 94 1017.6